St. Petersburg Airport, FL

2:45 PM EST on November 21, 2017 (GMT -0500)
Saint Petersburg-Clearwater International

Weather History for KPIE - August, 2013

Change the Weather History Date:

Friday, August 23, 2013

  Actual Average Record
Temperature  
Mean Temperature 83 °F -  
Max Temperature 91 °F 90 °F 99 °F (1986)
Min Temperature 75 °F 76 °F 70 °F (1972)
Cooling Degree Days 18    
Growing Degree Days 33 (Base 50)    
Moisture  
Dew Point 75 °F    
Average Humidity 84    
Maximum Humidity 96    
Minimum Humidity 55    
Precipitation  
Precipitation 0.95 in - - ()
Sea Level Pressure  
Sea Level Pressure 29.99 in    
Wind  
Wind Speed 6 mph (ENE)    
Max Wind Speed 17 mph    
Max Gust Speed 23 mph    
Visibility 9 miles    
Events Rain , Thunderstorm    
Averages and records for this station are not official NWS values.
T = Trace of Precipitation, MM = Missing Value Source: NWS Daily Summary

Daily Weather History Graph

Daily Weather History Graph

Search for Another Location

Airport or City:

Trip Planner

Search our weather history database for the weather conditions in past years. The results will help you decide how hot, cold, wet, or windy it might be!

Date:

Astronomy

Aug. 23, 2013 Rise Set
Actual Time 7:05 AM EDT 8:00 PM EDT
Civil Twilight 6:40 AM EDT 8:25 PM EDT
Nautical Twilight 6:12 AM EDT 8:53 PM EDT
Astronomical Twilight 5:43 AM EDT 9:22 PM EDT
Moon 9:41 PM EDT (8/23) 9:38 AM EDT (8/23)
Length of Visible Light 13h 44m
Length of Day
12h 55m
Waning Gibbous, 91% of the Moon is Illuminated
Aug 23
Waning Gibbous
Aug 28
Last Quarter
Sep 5
New
Sep 12
First Quarter
Sep 19
Full

Hourly Weather History & Observations

Time (EDT) Temp. Heat Index Dew Point Humidity Pressure Visibility Wind Dir Wind Speed Gust Speed Precip Events Conditions
12:53 AM 78.1 °F - 75.9 °F 93% 30.02 in 10.0 mi East 4.6 mph - N/A   Clear
1:22 AM 78.8 °F - 77.0 °F 94% 30.01 in 10.0 mi East 5.8 mph - N/A   Partly Cloudy
1:53 AM 79.0 °F - 77.0 °F 94% 30.00 in 10.0 mi East 5.8 mph - N/A   Clear
2:10 AM 78.8 °F - 77.0 °F 94% 30.00 in 10.0 mi East 6.9 mph - N/A   Partly Cloudy
2:53 AM 79.0 °F - 77.0 °F 94% 29.99 in 10.0 mi East 5.8 mph - N/A   Partly Cloudy
3:27 AM 78.8 °F - 77.0 °F 94% 29.98 in 10.0 mi ENE 8.1 mph - N/A   Mostly Cloudy
3:53 AM 79.0 °F - 77.0 °F 94% 29.98 in 10.0 mi East 6.9 mph - N/A   Mostly Cloudy
4:44 AM 78.8 °F - 77.0 °F 94% 29.97 in 10.0 mi East 4.6 mph - N/A   Scattered Clouds
4:53 AM 78.1 °F - 77.0 °F 96% 29.97 in 10.0 mi East 4.6 mph - N/A   Scattered Clouds
5:10 AM 78.8 °F - 77.0 °F 94% 29.97 in 10.0 mi East 5.8 mph - N/A   Mostly Cloudy
5:25 AM 78.8 °F - 77.0 °F 94% 29.97 in 10.0 mi East 4.6 mph - N/A   Scattered Clouds
5:53 AM 78.1 °F - 77.0 °F 96% 29.97 in 10.0 mi East 4.6 mph - N/A   Clear
6:36 AM 78.8 °F - 77.0 °F 94% 29.98 in 10.0 mi East 3.5 mph - N/A   Scattered Clouds
6:53 AM 78.1 °F - 77.0 °F 96% 29.99 in 10.0 mi ESE 4.6 mph - N/A   Mostly Cloudy
7:31 AM 78.8 °F - 77.0 °F 94% 29.98 in 10.0 mi East 4.6 mph - N/A   Scattered Clouds
7:53 AM 78.1 °F - 77.0 °F 96% 29.99 in 10.0 mi East 4.6 mph - N/A   Scattered Clouds
8:53 AM 80.1 °F 85.8 °F 77.0 °F 90% 30.00 in 10.0 mi East 6.9 mph - N/A   Partly Cloudy
9:53 AM 82.9 °F 92.8 °F 78.1 °F 85% 30.01 in 10.0 mi East 6.9 mph - N/A   Scattered Clouds
10:53 AM 82.9 °F 91.8 °F 77.0 °F 82% 30.03 in 10.0 mi ESE 5.8 mph - N/A   Scattered Clouds
11:44 AM 84.2 °F 94.1 °F 77.0 °F 79% 30.02 in 10.0 mi ENE 5.8 mph - N/A   Scattered Clouds
11:53 AM 84.0 °F 93.7 °F 77.0 °F 79% 30.02 in 10.0 mi ENE 6.9 mph - N/A   Scattered Clouds
12:53 PM 87.1 °F 98.8 °F 77.0 °F 72% 30.01 in 10.0 mi ENE 5.8 mph - N/A   Scattered Clouds
1:53 PM 89.1 °F 100.2 °F 75.9 °F 65% 30.00 in 10.0 mi NE 6.9 mph - N/A   Scattered Clouds
2:53 PM 91.0 °F 99.3 °F 73.0 °F 55% 29.98 in 10.0 mi NNE 4.6 mph - N/A   Scattered Clouds
3:53 PM 89.1 °F 98.0 °F 73.9 °F 61% 29.97 in 10.0 mi NNW 3.5 mph - N/A   Scattered Clouds
4:41 PM 86.0 °F 95.1 °F 75.2 °F 70% 29.97 in 10.0 mi North 5.8 mph - 0.01 in Thunderstorm Thunderstorm
4:53 PM 82.0 °F 87.9 °F 73.9 °F 76% 29.98 in 10.0 mi ESE 12.7 mph 17.3 mph 0.02 in Rain , Thunderstorm Light Thunderstorms and Rain
5:07 PM 78.8 °F - 73.4 °F 83% 30.00 in 1.5 mi SSW 12.7 mph 17.3 mph 0.31 in Rain , Thunderstorm Heavy Thunderstorms and Rain
5:21 PM 75.2 °F - 69.8 °F 83% 29.99 in 1.5 mi WSW 11.5 mph 21.9 mph 0.61 in Rain , Thunderstorm Heavy Thunderstorms and Rain
5:35 PM 77.0 °F - 71.6 °F 83% 29.98 in 1.5 mi WNW 12.7 mph - 0.86 in Rain Heavy Rain
5:37 PM 78.8 °F - 69.8 °F 74% 29.98 in 3.0 mi WNW 10.4 mph - 0.88 in Rain , Thunderstorm Heavy Thunderstorms and Rain
5:53 PM 77.0 °F - 71.1 °F 82% 29.97 in 10.0 mi NW 4.6 mph - 0.92 in Rain Light Rain
6:21 PM 82.4 °F 90.9 °F 77.0 °F 84% 29.98 in 10.0 mi North 4.6 mph - 0.01 in   Scattered Clouds
6:53 PM 82.9 °F 90.8 °F 75.9 °F 79% 29.99 in 10.0 mi NNE 16.1 mph 21.9 mph 0.01 in   Overcast
7:22 PM 80.6 °F 85.4 °F 73.4 °F 79% 30.00 in 10.0 mi NE 17.3 mph 23.0 mph N/A   Scattered Clouds
7:53 PM 79.0 °F - 73.0 °F 82% 30.00 in 10.0 mi ENE 9.2 mph 16.1 mph N/A   Clear
8:32 PM 78.8 °F - 71.6 °F 78% 30.00 in 10.0 mi East 11.5 mph 19.6 mph N/A   Partly Cloudy
8:53 PM 79.0 °F - 72.0 °F 79% 30.01 in 10.0 mi ESE 10.4 mph - N/A   Clear
9:53 PM 79.0 °F - 72.0 °F 79% 30.03 in 10.0 mi ENE 8.1 mph - N/A   Clear
10:53 PM 78.1 °F - 72.0 °F 81% 30.02 in 10.0 mi East 5.8 mph - N/A   Clear
11:53 PM 77.0 °F - 73.9 °F 90% 30.03 in 10.0 mi ESE 5.8 mph - N/A   Clear